Time,TemperatureF,DewpointF,PressureIn,WindDirection,WindDirectionDegrees,WindSpeedMPH,WindSpeedGustMPH,Humidity,HourlyPrecipIn,Conditions,Clouds,dailyrainin,SoftwareType,DateUTC
2013-01-10 00:03:00,50.0,48.0,30.38,West,264,0.0,1.0,93,0.00,,,0.00,,2013-01-10 05:03:00,
2013-01-10 00:12:00,50.0,48.0,30.38,West,264,0.0,1.0,93,0.00,,,0.00,,2013-01-10 05:12:00,
2013-01-10 00:22:00,50.0,48.0,30.38,West,264,0.0,0.0,93,0.00,,,0.00,,2013-01-10 05:22:00,
2013-01-10 00:33:00,50.0,48.0,30.38,West,264,0.0,1.0,93,0.00,,,0.00,,2013-01-10 05:33:00,
2013-01-10 00:43:00,50.0,48.0,30.38,West,264,0.0,1.0,93,0.00,,,0.00,,2013-01-10 05:43:00,
2013-01-10 00:53:00,50.0,48.0,30.38,West,264,0.0,0.0,93,0.00,,,0.00,,2013-01-10 05:53:00,
2013-01-10 01:02:00,50.0,48.0,30.38,West,264,0.0,0.0,93,0.00,,,0.00,,2013-01-10 06:02:00,
2013-01-10 01:12:00,50.0,48.0,30.38,West,264,0.0,0.0,93,0.00,,,0.00,,2013-01-10 06:12:00,
2013-01-10 01:22:00,50.0,48.0,30.38,West,264,0.0,0.0,93,0.00,,,0.00,,2013-01-10 06:22:00,
2013-01-10 01:32:00,50.0,48.0,30.37,West,264,0.0,0.0,93,0.00,,,0.00,,2013-01-10 06:32:00,
2013-01-10 01:42:00,50.0,48.0,30.37,West,264,0.0,0.0,93,0.00,,,0.00,,2013-01-10 06:42:00,
2013-01-10 01:52:00,50.0,48.0,30.36,West,264,0.0,0.0,93,0.00,,,0.00,,2013-01-10 06:52:00,
2013-01-10 02:02:00,50.0,48.0,30.37,West,264,0.0,1.0,93,0.00,,,0.00,,2013-01-10 07:02:00,
2013-01-10 02:12:00,50.0,48.0,30.37,West,264,0.0,1.0,93,0.00,,,0.00,,2013-01-10 07:12:00,
2013-01-10 02:22:00,50.0,48.0,30.38,West,264,0.0,0.0,93,0.00,,,0.00,,2013-01-10 07:22:00,
2013-01-10 02:32:00,50.0,48.0,30.40,West,264,0.0,1.0,93,0.00,,,0.00,,2013-01-10 07:32:00,
2013-01-10 02:42:00,50.0,48.0,30.40,West,264,0.0,1.0,93,0.00,,,0.00,,2013-01-10 07:42:00,
2013-01-10 02:52:00,50.0,48.0,30.37,West,264,0.0,1.0,93,0.00,,,0.00,,2013-01-10 07:52:00,
2013-01-10 03:02:00,49.0,47.0,30.37,West,264,0.0,0.0,93,0.00,,,0.00,,2013-01-10 08:02:00,
2013-01-10 03:12:00,49.0,47.0,30.37,West,264,0.0,0.0,93,0.00,,,0.00,,2013-01-10 08:12:00,
2013-01-10 03:22:00,49.0,47.0,30.35,West,264,0.0,0.0,93,0.00,,,0.00,,2013-01-10 08:22:00,
2013-01-10 03:32:00,49.0,47.0,30.35,West,264,0.0,1.0,93,0.00,,,0.00,,2013-01-10 08:32:00,
2013-01-10 03:42:00,49.0,47.0,30.35,West,264,0.0,1.0,93,0.00,,,0.00,,2013-01-10 08:42:00,
2013-01-10 03:53:00,49.0,47.0,30.35,West,264,0.0,0.0,93,0.00,,,0.00,,2013-01-10 08:53:00,
2013-01-10 04:02:00,49.0,47.0,30.34,West,264,0.0,0.0,93,0.00,,,0.00,,2013-01-10 09:02:00,
2013-01-10 04:12:00,49.0,47.0,30.34,West,264,0.0,0.0,93,0.00,,,0.00,,2013-01-10 09:12:00,
2013-01-10 04:22:00,49.0,47.0,30.35,West,264,0.0,0.0,93,0.00,,,0.00,,2013-01-10 09:22:00,
2013-01-10 04:32:00,48.0,46.0,30.35,West,264,0.0,1.0,93,0.00,,,0.00,,2013-01-10 09:32:00,
2013-01-10 04:42:00,48.0,46.0,30.35,West,264,0.0,1.0,93,0.00,,,0.00,,2013-01-10 09:42:00,
2013-01-10 04:52:00,48.0,46.0,30.35,West,264,0.0,0.0,93,0.00,,,0.00,,2013-01-10 09:52:00,
2013-01-10 05:03:00,48.0,46.0,30.35,West,264,0.0,0.0,93,0.00,,,0.00,,2013-01-10 10:03:00,
2013-01-10 05:12:00,48.0,46.0,30.35,West,264,0.0,0.0,93,0.00,,,0.00,,2013-01-10 10:12:00,
2013-01-10 05:22:00,48.0,46.0,30.35,West,264,0.0,0.0,93,0.00,,,0.00,,2013-01-10 10:22:00,
2013-01-10 05:32:00,47.0,45.0,30.36,West,264,0.0,0.0,93,0.00,,,0.00,,2013-01-10 10:32:00,
2013-01-10 05:42:00,47.0,45.0,30.36,West,264,0.0,0.0,93,0.00,,,0.00,,2013-01-10 10:42:00,
2013-01-10 05:53:00,47.0,45.0,30.37,West,264,0.0,0.0,93,0.00,,,0.00,,2013-01-10 10:53:00,
2013-01-10 06:02:00,47.0,45.0,30.37,West,264,0.0,0.0,93,0.00,,,0.00,,2013-01-10 11:02:00,
2013-01-10 06:12:00,47.0,45.0,30.37,West,264,0.0,0.0,93,0.00,,,0.00,,2013-01-10 11:12:00,
2013-01-10 06:22:00,47.0,45.0,30.37,West,264,0.0,0.0,93,0.00,,,0.00,,2013-01-10 11:22:00,
2013-01-10 06:33:00,47.0,45.0,30.37,West,264,0.0,0.0,93,0.00,,,0.00,,2013-01-10 11:33:00,
2013-01-10 06:43:00,47.0,45.0,30.37,West,264,0.0,0.0,93,0.00,,,0.00,,2013-01-10 11:43:00,
2013-01-10 06:53:00,47.0,45.0,30.37,West,264,0.0,0.0,93,0.00,,,0.00,,2013-01-10 11:53:00,
2013-01-10 07:03:00,47.0,45.0,30.37,West,264,0.0,0.0,93,0.00,,,0.00,,2013-01-10 12:03:00,
2013-01-10 07:12:00,47.0,45.0,30.37,West,264,0.0,0.0,93,0.00,,,0.00,,2013-01-10 12:12:00,
2013-01-10 07:22:00,47.0,45.0,30.39,West,264,0.0,0.0,93,0.00,,,0.00,,2013-01-10 12:22:00,
2013-01-10 07:33:00,47.0,45.0,30.39,West,264,0.0,0.0,93,0.00,,,0.00,,2013-01-10 12:33:00,
2013-01-10 07:43:00,47.0,45.0,30.39,West,264,0.0,0.0,93,0.00,,,0.00,,2013-01-10 12:43:00,
2013-01-10 07:53:00,47.0,45.0,30.40,West,264,0.0,0.0,93,0.00,,,0.00,,2013-01-10 12:53:00,
2013-01-10 08:02:00,47.0,45.0,30.40,West,264,0.0,0.0,94,0.00,,,0.00,,2013-01-10 13:02:00,
2013-01-10 08:12:00,47.0,45.0,30.40,West,264,0.0,0.0,94,0.00,,,0.00,,2013-01-10 13:12:00,
2013-01-10 08:22:00,47.0,45.0,30.40,West,264,0.0,0.0,94,0.00,,,0.00,,2013-01-10 13:22:00,
2013-01-10 08:32:00,47.0,45.0,30.40,West,264,0.0,0.0,94,0.00,,,0.00,,2013-01-10 13:32:00,
2013-01-10 08:42:00,47.0,45.0,30.40,West,264,0.0,0.0,94,0.00,,,0.00,,2013-01-10 13:42:00,
2013-01-10 08:53:00,47.0,45.0,30.40,West,264,0.0,0.0,94,0.00,,,0.00,,2013-01-10 13:53:00,
2013-01-10 09:02:00,47.0,45.0,30.40,West,264,0.0,0.0,94,0.00,,,0.00,,2013-01-10 14:02:00,
2013-01-10 09:12:00,47.0,45.0,30.40,West,264,0.0,0.0,94,0.00,,,0.00,,2013-01-10 14:12:00,
2013-01-10 09:22:00,47.0,45.0,30.41,West,264,0.0,0.0,94,0.00,,,0.00,,2013-01-10 14:22:00,
2013-01-10 09:33:00,48.0,46.0,30.41,West,264,0.0,0.0,94,0.01,,,0.01,,2013-01-10 14:33:00,
2013-01-10 09:43:00,48.0,46.0,30.41,West,264,0.0,0.0,94,0.01,,,0.01,,2013-01-10 14:43:00,
2013-01-10 09:53:00,48.0,46.0,30.40,West,264,0.0,0.0,94,0.01,,,0.01,,2013-01-10 14:53:00,
2013-01-10 10:03:00,48.0,46.0,30.41,West,264,0.0,1.0,94,0.01,,,0.01,,2013-01-10 15:03:00,
2013-01-10 10:12:00,48.0,46.0,30.41,West,264,0.0,1.0,94,0.01,,,0.01,,2013-01-10 15:12:00,
2013-01-10 10:23:00,52.0,51.0,30.41,West,264,0.0,2.0,95,0.01,,,0.01,,2013-01-10 15:23:00,
2013-01-10 10:33:00,54.0,50.0,30.38,West,264,0.0,1.0,87,0.00,,,0.01,,2013-01-10 15:33:00,
2013-01-10 10:43:00,54.0,50.0,30.38,West,264,0.0,1.0,87,0.00,,,0.01,,2013-01-10 15:43:00,
2013-01-10 10:53:00,55.0,50.0,30.38,West,264,0.0,1.0,83,0.00,,,0.01,,2013-01-10 15:53:00,
2013-01-10 11:03:00,60.0,52.0,30.37,SSW,195,2.0,10.0,74,0.00,,,0.01,,2013-01-10 16:03:00,
2013-01-10 11:13:00,60.0,52.0,30.37,SSW,195,2.0,10.0,74,0.00,,,0.01,,2013-01-10 16:13:00,
2013-01-10 11:23:00,60.0,51.0,30.36,SSE,154,2.0,12.0,72,0.00,,,0.01,,2013-01-10 16:23:00,
2013-01-10 11:33:00,60.0,51.0,30.35,SSE,153,2.0,17.0,72,0.00,,,0.01,,2013-01-10 16:33:00,
2013-01-10 11:43:00,60.0,51.0,30.35,SSE,153,2.0,17.0,72,0.00,,,0.01,,2013-01-10 16:43:00,
2013-01-10 11:53:00,60.0,51.0,30.35,SW,232,3.0,10.0,71,0.00,,,0.01,,2013-01-10 16:53:00,
2013-01-10 12:03:00,60.0,51.0,30.34,South,188,5.0,9.0,72,0.00,,,0.01,,2013-01-10 17:03:00,
2013-01-10 12:12:00,60.0,51.0,30.34,South,188,5.0,9.0,72,0.00,,,0.01,,2013-01-10 17:12:00,
2013-01-10 12:22:00,60.0,51.0,30.34,South,173,3.0,12.0,73,0.00,,,0.01,,2013-01-10 17:22:00,
2013-01-10 12:33:00,59.0,50.0,30.33,SSW,208,4.0,7.0,73,0.00,,,0.01,,2013-01-10 17:33:00,
2013-01-10 12:42:00,59.0,50.0,30.33,SSW,208,4.0,7.0,73,0.00,,,0.01,,2013-01-10 17:42:00,
2013-01-10 12:53:00,59.0,51.0,30.33,SSW,209,1.0,6.0,75,0.00,,,0.01,,2013-01-10 17:53:00,
2013-01-10 13:03:00,59.0,51.0,30.32,SSW,196,3.0,9.0,74,0.00,,,0.01,,2013-01-10 18:03:00,
2013-01-10 13:12:00,58.0,50.0,30.32,SSE,153,6.0,12.0,74,0.00,,,0.01,,2013-01-10 18:12:00,
2013-01-10 13:23:00,58.0,50.0,30.32,SSE,153,6.0,12.0,74,0.00,,,0.01,,2013-01-10 18:23:00,
2013-01-10 13:33:00,58.0,50.0,30.30,SSE,160,5.0,13.0,75,0.00,,,0.01,,2013-01-10 18:33:00,
2013-01-10 13:43:00,58.0,50.0,30.30,South,188,6.0,13.0,75,0.00,,,0.01,,2013-01-10 18:43:00,
2013-01-10 13:53:00,58.0,50.0,30.30,South,188,6.0,13.0,75,0.00,,,0.01,,2013-01-10 18:53:00,
2013-01-10 14:03:00,58.0,50.0,30.29,SSE,162,3.0,13.0,75,0.00,,,0.01,,2013-01-10 19:03:00,
2013-01-10 14:13:00,58.0,50.0,30.30,SSE,161,5.0,13.0,75,0.00,,,0.01,,2013-01-10 19:13:00,
2013-01-10 14:23:00,58.0,50.0,30.30,SSE,161,5.0,13.0,75,0.00,,,0.01,,2013-01-10 19:23:00,
2013-01-10 14:33:00,58.0,50.0,30.29,ENE,71,1.0,7.0,76,0.00,,,0.01,,2013-01-10 19:33:00,
2013-01-10 14:43:00,58.0,50.0,30.29,ENE,71,1.0,7.0,76,0.00,,,0.01,,2013-01-10 19:43:00,
2013-01-10 14:53:00,57.0,50.0,30.30,ENE,72,2.0,7.0,77,0.00,,,0.01,,2013-01-10 19:53:00,
2013-01-10 15:03:00,57.0,50.0,30.30,SE,146,3.0,6.0,78,0.00,,,0.01,,2013-01-10 20:03:00,
2013-01-10 15:13:00,57.0,50.0,30.30,SSE,165,5.0,12.0,78,0.00,,,0.01,,2013-01-10 20:13:00,
2013-01-10 15:24:00,57.0,50.0,30.30,SSE,165,5.0,12.0,78,0.00,,,0.01,,2013-01-10 20:24:00,
2013-01-10 15:33:00,56.0,50.0,30.30,SSW,202,2.0,10.0,79,0.00,,,0.01,,2013-01-10 20:33:00,
2013-01-10 15:43:00,56.0,50.0,30.30,SSW,202,2.0,10.0,79,0.00,,,0.01,,2013-01-10 20:43:00,
2013-01-10 15:53:00,56.0,50.0,30.30,SW,217,5.0,12.0,80,0.00,,,0.01,,2013-01-10 20:53:00,
2013-01-10 16:04:00,56.0,50.0,30.30,SW,214,3.0,14.0,81,0.00,,,0.01,,2013-01-10 21:04:00,
2013-01-10 16:13:00,55.0,49.0,30.30,ESE,115,3.0,12.0,81,0.00,,,0.01,,2013-01-10 21:13:00,
2013-01-10 16:23:00,55.0,49.0,30.30,ESE,115,3.0,12.0,81,0.00,,,0.01,,2013-01-10 21:23:00,
2013-01-10 16:33:00,55.0,49.0,30.31,SE,129,3.0,12.0,81,0.00,,,0.01,,2013-01-10 21:33:00,
2013-01-10 16:43:00,55.0,49.0,30.31,SE,129,3.0,12.0,81,0.00,,,0.01,,2013-01-10 21:43:00,
2013-01-10 16:53:00,55.0,49.0,30.31,SSW,197,1.0,10.0,81,0.00,,,0.01,,2013-01-10 21:53:00,
2013-01-10 17:03:00,55.0,49.0,30.31,SSW,202,0.0,12.0,81,0.00,,,0.01,,2013-01-10 22:03:00,
2013-01-10 17:12:00,55.0,49.0,30.31,SSW,202,0.0,12.0,81,0.00,,,0.01,,2013-01-10 22:12:00,
2013-01-10 17:26:00,55.0,49.0,30.31,SSW,202,0.0,12.0,81,0.00,,,0.01,,2013-01-10 22:26:00,
2013-01-10 17:33:00,55.0,49.0,30.31,South,169,5.0,14.0,81,0.00,,,0.01,,2013-01-10 22:33:00,
2013-01-10 17:43:00,55.0,49.0,30.31,South,169,5.0,14.0,81,0.00,,,0.01,,2013-01-10 22:43:00,
2013-01-10 18:03:00,54.0,49.0,30.32,South,190,6.0,16.0,83,0.00,,,0.01,,2013-01-10 23:03:00,
2013-01-10 18:13:00,54.0,49.0,30.32,SE,132,4.0,15.0,83,0.00,,,0.01,,2013-01-10 23:13:00,
2013-01-10 18:23:00,54.0,49.0,30.32,SE,132,4.0,15.0,83,0.00,,,0.01,,2013-01-10 23:23:00,
2013-01-10 18:33:00,54.0,49.0,30.32,SSE,166,4.0,12.0,83,0.00,,,0.01,,2013-01-10 23:33:00,
2013-01-10 18:43:00,54.0,49.0,30.32,SSE,166,4.0,12.0,83,0.00,,,0.01,,2013-01-10 23:43:00,
2013-01-10 18:53:00,54.0,49.0,30.32,SSE,168,5.0,15.0,82,0.00,,,0.01,,2013-01-10 23:53:00,
2013-01-10 19:03:00,53.0,48.0,30.32,South,174,3.0,12.0,82,0.00,,,0.01,,2013-01-11 00:03:00,
2013-01-10 19:13:00,53.0,48.0,30.32,SE,127,1.0,10.0,83,0.00,,,0.01,,2013-01-11 00:13:00,
2013-01-10 19:23:00,53.0,48.0,30.32,SE,127,1.0,10.0,83,0.00,,,0.01,,2013-01-11 00:23:00,
2013-01-10 19:33:00,53.0,48.0,30.31,SE,131,4.0,12.0,83,0.00,,,0.01,,2013-01-11 00:33:00,
2013-01-10 19:42:00,53.0,48.0,30.31,SE,131,4.0,12.0,83,0.00,,,0.01,,2013-01-11 00:42:00,
2013-01-10 19:53:00,53.0,48.0,30.31,South,173,4.0,12.0,82,0.00,,,0.01,,2013-01-11 00:53:00,
2013-01-10 20:03:00,52.0,47.0,30.31,SE,142,3.0,10.0,82,0.00,,,0.01,,2013-01-11 01:03:00,
2013-01-10 20:13:00,52.0,46.0,30.32,SE,133,5.0,12.0,79,0.00,,,0.01,,2013-01-11 01:13:00,
2013-01-10 20:23:00,52.0,46.0,30.32,SE,133,5.0,12.0,79,0.00,,,0.01,,2013-01-11 01:23:00,
2013-01-10 20:33:00,51.0,44.0,30.31,SE,143,3.0,13.0,76,0.00,,,0.01,,2013-01-11 01:33:00,
2013-01-10 20:43:00,51.0,44.0,30.31,SE,143,3.0,13.0,76,0.00,,,0.01,,2013-01-11 01:43:00,
2013-01-10 20:53:00,51.0,42.0,30.32,SSW,194,4.0,12.0,72,0.00,,,0.01,,2013-01-11 01:53:00,
2013-01-10 21:03:00,51.0,41.0,30.32,South,189,7.0,13.0,68,0.00,,,0.01,,2013-01-11 02:03:00,
2013-01-10 21:13:00,51.0,39.0,30.32,SSW,201,6.0,12.0,64,0.00,,,0.01,,2013-01-11 02:13:00,
2013-01-10 21:23:00,51.0,39.0,30.32,SSW,201,6.0,12.0,64,0.00,,,0.01,,2013-01-11 02:23:00,
2013-01-10 21:33:00,51.0,38.0,30.32,SSW,202,5.0,16.0,61,0.00,,,0.01,,2013-01-11 02:33:00,
2013-01-10 21:43:00,51.0,38.0,30.32,SSW,202,5.0,16.0,61,0.00,,,0.01,,2013-01-11 02:43:00,
2013-01-10 21:54:00,50.0,35.0,30.30,SW,214,6.0,15.0,56,0.00,,,0.01,,2013-01-11 02:54:00,
2013-01-10 22:03:00,50.0,34.0,30.31,SSW,198,6.0,13.0,55,0.00,,,0.01,,2013-01-11 03:03:00,
2013-01-10 22:12:00,50.0,34.0,30.30,South,172,6.0,17.0,53,0.00,,,0.01,,2013-01-11 03:12:00,
2013-01-10 22:23:00,50.0,34.0,30.30,South,172,6.0,17.0,53,0.00,,,0.01,,2013-01-11 03:23:00,
2013-01-10 22:33:00,50.0,33.0,30.29,South,187,7.0,14.0,52,0.00,,,0.01,,2013-01-11 03:33:00,
2013-01-10 22:43:00,50.0,33.0,30.29,South,187,7.0,14.0,52,0.00,,,0.01,,2013-01-11 03:43:00,
2013-01-10 22:53:00,50.0,33.0,30.27,South,181,5.0,21.0,52,0.00,,,0.01,,2013-01-11 03:53:00,
2013-01-10 23:02:00,49.0,33.0,30.26,South,179,6.0,14.0,54,0.00,,,0.01,,2013-01-11 04:02:00,
2013-01-10 23:12:00,49.0,33.0,30.25,SSW,193,6.0,14.0,54,0.00,,,0.01,,2013-01-11 04:12:00,
2013-01-10 23:22:00,49.0,33.0,30.25,SSW,193,6.0,14.0,54,0.00,,,0.01,,2013-01-11 04:22:00,
2013-01-10 23:33:00,49.0,34.0,30.25,SSW,204,5.0,13.0,55,0.00,,,0.01,,2013-01-11 04:33:00,
2013-01-10 23:43:00,49.0,34.0,30.25,SSW,204,5.0,13.0,55,0.00,,,0.01,,2013-01-11 04:43:00,
2013-01-10 23:53:00,49.0,34.0,30.24,SSE,164,4.0,13.0,56,0.00,,,0.01,,2013-01-11 04:53:00,